Wind_Speed
36 37 37 38 40 41 42 43 44 45 47 48 49 48 47 47 45 44 44 44 44 44 45 46 48 48 48 47 47 46 45 45 44 43 41 40 39 38 38 37 36 35 34 34
34 35 35 37 38 40 41 43 43 45 47 48 49 49 49 48 46 45 45 45 46 46 46 46 47 48 48 48 48 48 47 46 46 45 43 42 42 40 39 38 38 37 36 36
32 32 32 33 35 37 39 40 41 44 46 47 48 49 50 49 48 47 47 47 47 46 46 46 47 47 48 48 49 49 49 48 47 47 46 44 43 41 41 40 39 39 38 38
29 29 31 32 33 35 36 38 40 42 44 45 46 48 49 49 48 48 48 48 47 47 47 47 47 47 47 48 49 49 49 49 49 48 47 46 45 43 42 42 41 41 41 40
28 28 29 31 32 33 34 35 38 40 43 44 44 46 48 49 49 49 49 49 48 49 48 47 47 48 47 47 48 49 50 50 50 49 48 47 45 45 45 44 42 42 42 41
26 27 28 30 31 32 33 34 36 38 41 44 43 44 47 48 49 48 49 49 50 49 50 49 49 49 48 48 48 50 51 51 50 50 49 48 46 46 46 45 45 44 44 43
25 26 26 28 29 31 31 31 33 35 38 42 42 44 45 46 47 47 48 49 50 50 50 50 50 50 49 49 48 50 51 51 51 50 50 48 47 46 46 46 46 45 44 44
25 25 25 26 27 28 28 29 30 33 36 39 40 42 43 45 45 46 47 48 49 50 50 50 51 51 52 50 50 51 52 52 51 50 50 49 48 47 47 46 46 46 46 45
24 24 24 25 26 26 28 28 28 30 34 35 37 39 41 43 45 46 46 46 48 50 50 50 50 51 52 51 51 52 53 52 51 50 50 50 49 49 48 48 46 46 47 46
24 25 24 24 25 26 27 28 27 28 31 34 35 36 38 39 41 44 45 45 47 48 50 50 50 51 51 51 51 51 53 54 52 52 51 50 50 50 50 49 49 48 47 46
25 25 25 24 24 25 26 27 28 29 30 32 34 35 36 37 37 39 42 44 45 46 48 49 49 50 51 51 52 53 53 53 53 53 53 52 51 51 51 50 49 48 48 47
24 24 24 24 23 23 25 26 28 29 29 30 32 34 34 35 35 37 39 42 44 45 46 48 48 49 49 50 51 52 52 53 53 53 53 52 52 51 51 51 50 50 49 49
22 23 24 23 22 22 23 23 25 27 28 30 30 31 33 33 34 36 38 41 43 45 46 47 48 48 49 50 51 51 51 52 53 52 52 53 52 52 52 51 51 51 51 50
21 21 22 22 22 22 22 22 24 26 28 29 29 29 31 33 34 35 36 39 42 44 46 47 48 48 49 49 50 51 51 51 52 53 52 52 52 52 53 53 52 52 51 51
19 19 18 19 19 20 22 22 23 24 26 30 30 29 29 31 33 34 35 37 39 42 44 46 47 49 49 49 50 50 50 50 51 52 52 52 52 52 53 53 53 53 52 52
18 17 17 17 18 19 20 21 22 23 24 26 28 28 28 29 31 32 34 36 38 40 42 44 45 46 48 49 49 49 50 50 51 51 52 52 52 53 53 53 53 54 53 53
17 16 16 16 16 17 18 18 20 21 22 23 26 27 26 26 28 30 31 33 36 39 40 42 44 45 46 47 48 49 50 50 50 50 51 51 52 53 53 53 53 53 54 53
15 15 15 15 15 16 15 16 17 19 20 22 22 24 25 25 26 27 29 30 33 35 38 40 43 44 44 45 47 47 48 48 48 49 50 51 52 51 52 52 53 52 53 52
16 16 16 16 16 16 15 15 16 17 19 20 20 22 23 23 24 26 27 29 30 32 35 38 39 41 43 44 45 45 46 47 48 47 48 49 50 50 50 51 51 51 51 51
16 16 16 16 17 16 15 15 15 16 17 18 19 20 21 21 22 22 25 27 28 31 32 35 37 38 40 42 43 44 45 46 47 47 47 47 48 49 49 49 50 50 49 49
16 16 16 16 16 16 15 15 14 16 16 17 18 19 20 20 20 20 22 24 26 29 31 33 36 36 38 39 40 41 42 43 44 46 47 47 46 48 48 47 48 48 48 48
16 16 16 15 15 15 14 14 15 15 15 16 17 18 20 20 21 21 22 23 25 26 29 31 33 35 36 37 39 40 41 42 43 43 45 46 46 47 47 47 47 47 47 47
16 15 15 15 15 14 14 15 15 15 16 16 17 18 18 20 21 22 22 23 24 25 27 29 31 33 34 35 37 38 39 40 41 42 42 43 44 45 46 46 46 46 46 46
16 15 14 14 14 14 15 15 16 16 16 17 17 17 18 19 20 21 22 23 24 25 26 28 29 31 32 34 35 35 36 37 38 40 41 42 43 44 45 45 45 45 45 44
15 15 14 14 14 14 15 15 16 16 17 17 17 17 18 19 19 20 20 21 23 24 25 27 28 29 31 32 33 34 35 35 36 38 39 41 41 42 43 43 43 43 43 43
15 15 15 14 14 14 14 15 16 16 17 17 18 18 18 19 20 20 20 20 21 23 25 26 28 30 30 30 31 32 33 34 35 35 36 38 39 40 41 42 43 43 43 43
Wind_Direction
274 271 267 263 260 259 257 255 251 247 246 244 243 241 238 237 237 236 234 234 234 233 232 231 231 231 231 232 232 232 233 233 233 232 232 233 233 235 235 237 238 238 240 241
276 271 268 264 260 258 257 254 251 248 246 244 243 241 239 237 237 236 234 234 234 234 232 232 231 231 231 232 232 232 233 233 232 232 231 233 234 235 235 237 238 239 240 241
277 273 268 264 260 258 256 253 250 248 245 243 243 241 238 237 237 236 234 233 234 234 233 232 231 231 232 232 232 232 233 232 232 232 232 233 234 235 236 237 238 239 240 241
279 274 269 265 263 260 256 252 251 248 245 243 242 242 238 236 235 235 234 233 233 233 232 231 231 231 232 231 231 231 231 232 232 232 232 234 235 235 236 237 238 240 241 241
280 276 271 265 264 262 257 253 252 249 245 243 241 242 239 236 235 235 235 233 233 232 231 231 230 230 230 230 231 230 230 231 232 232 233 234 235 235 237 237 239 240 241 242
282 278 273 268 264 262 258 255 253 250 247 245 241 242 241 237 236 236 235 234 233 232 230 230 230 230 230 230 231 230 229 230 231 232 232 233 234 235 237 238 240 241 242 243
282 280 276 271 266 261 258 255 253 250 247 246 243 242 241 238 237 237 235 234 233 232 231 230 230 230 230 230 230 229 228 228 229 231 232 233 234 236 237 238 240 241 243 244
281 279 276 272 267 262 256 253 251 250 247 246 244 244 241 238 237 237 235 234 233 232 231 230 230 230 230 231 230 229 229 228 229 230 232 233 234 236 237 238 240 242 244 245
284 280 278 274 268 262 257 253 251 250 247 248 246 245 241 239 237 236 235 233 233 232 231 230 230 230 230 231 230 228 229 229 230 230 232 234 235 236 237 238 240 242 244 244
286 281 278 275 269 262 258 255 252 248 245 247 247 246 244 240 239 236 235 233 233 232 231 230 229 230 230 230 229 228 229 230 231 232 232 234 236 237 238 240 240 242 243 244
285 282 278 273 270 264 259 252 249 250 246 245 246 245 244 243 241 238 236 235 233 232 231 230 230 230 230 230 230 230 230 230 232 233 233 234 236 238 239 240 241 242 243 244
284 281 279 274 271 266 262 253 250 248 246 244 245 245 245 245 242 240 237 236 234 233 231 230 230 230 231 231 231 231 231 231 232 233 234 235 236 238 238 239 240 241 243 245
286 281 279 275 270 265 262 255 251 249 248 247 247 246 243 245 245 243 240 236 234 233 232 232 232 231 231 232 232 233 233 233 233 233 235 236 237 238 239 240 241 242 243 245
287 282 277 274 271 267 262 259 254 251 248 247 246 247 245 246 246 244 241 238 235 233 233 233 232 232 232 233 233 234 234 234 234 234 234 235 237 238 239 240 242 243 244 245
288 285 279 274 273 270 266 261 259 256 252 248 246 248 247 247 246 245 242 239 236 234 233 233 233 233 233 234 235 234 234 235 235 235 235 236 237 238 240 241 243 244 245 246
289 285 280 277 275 274 269 263 259 258 255 248 245 245 245 248 246 246 244 241 238 236 234 234 233 233 233 234 234 235 234 234 235 236 236 237 238 239 240 241 243 244 245 247
290 285 281 282 279 276 274 265 259 257 253 249 246 245 246 247 245 245 245 244 241 237 234 233 232 233 233 233 233 234 234 234 235 236 237 238 238 239 240 241 243 244 245 246
289 288 285 283 282 279 277 268 262 258 253 252 249 248 248 249 249 247 247 245 241 237 235 233 233 234 234 234 233 233 234 235 236 237 238 238 239 239 241 242 242 243 245 247
291 288 286 283 281 280 276 272 264 256 252 251 250 251 251 252 250 248 246 245 242 239 235 233 233 234 234 235 234 233 234 235 236 237 238 239 239 240 241 241 242 244 245 247
291 287 285 283 280 278 275 273 266 260 256 253 253 252 251 250 249 245 244 243 241 240 238 233 232 232 233 234 233 233 234 235 236 237 238 240 240 241 241 242 243 243 245 246
288 283 282 279 277 275 273 270 266 261 257 256 258 256 252 251 251 248 245 244 244 241 237 234 232 231 231 231 233 234 234 235 236 237 238 239 240 240 240 241 242 243 245 246
290 283 279 278 275 274 270 267 265 265 263 262 263 260 257 254 251 251 250 247 245 240 236 234 233 232 231 231 232 234 235 235 235 237 238 239 240 240 240 241 242 244 246 247
295 287 282 278 275 272 270 269 268 268 267 265 264 261 259 257 255 252 252 249 246 241 237 234 232 230 230 230 231 232 234 235 235 236 237 238 238 239 240 241 242 244 245 247
299 291 285 279 274 272 270 268 269 269 269 268 266 262 259 259 258 255 255 251 248 244 240 235 233 232 233 233 232 233 233 234 235 236 237 237 237 238 239 241 243 244 245 247
301 294 288 282 277 273 271 270 271 271 272 272 269 265 262 259 258 257 255 252 249 244 240 236 234 233 234 234 234 234 233 234 235 236 237 237 238 238 240 242 244 244 245 247
299 292 285 280 277 275 273 272 272 272 274 274 272 269 266 262 259 259 255 251 249 245 242 239 235 233 233 234 235 235 235 235 236 236 236 237 238 239 241 242 244 245 246 248
Height
5635 5635 5634 5634 5635 5636 5637 5639 5642 5646 5649 5653 5658 5663 5668 5673 5678 5684 5688 5693 5697 5702 5706 5711 5716 5721 5726 5731 5735 5740 5745 5750 5755 5760 5764 5769 5772 5776 5779 5783 5786 5789 5791 5794
5624 5623 5623 5622 5623 5623 5624 5626 5630 5633 5637 5640 5645 5650 5656 5661 5667 5672 5677 5682 5687 5692 5696 5701 5706 5710 5715 5720 5725 5730 5735 5740 5746 5751 5756 5760 5764 5767 5771 5775 5778 5781 5784 5787
5612 5612 5611 5611 5611 5612 5613 5615 5618 5621 5624 5628 5633 5638 5644 5649 5654 5661 5666 5671 5676 5681 5686 5691 5696 5700 5705 5710 5715 5720 5726 5731 5736 5741 5746 5750 5755 5758 5762 5766 5770 5773 5776 5779
5602 5602 5601 5601 5601 5601 5602 5604 5606 5609 5612 5616 5621 5625 5632 5637 5643 5649 5654 5659 5665 5670 5675 5680 5685 5690 5695 5699 5704 5710 5715 5721 5727 5731 5736 5742 5746 5750 5754 5758 5761 5765 5768 5771
5593 5593 5592 5591 5591 5591 5592 5594 5596 5598 5600 5604 5609 5612 5619 5625 5630 5637 5642 5648 5653 5658 5664 5669 5674 5680 5684 5689 5693 5699 5705 5711 5716 5722 5727 5732 5737 5741 5745 5748 5752 5756 5759 5762
5585 5584 5583 5582 5582 5582 5582 5584 5585 5587 5589 5592 5598 5601 5606 5612 5618 5625 5630 5635 5641 5646 5652 5658 5663 5668 5673 5678 5683 5688 5695 5701 5706 5712 5717 5723 5727 5731 5735 5739 5743 5747 5750 5754
5577 5576 5574 5574 5573 5573 5574 5575 5576 5576 5578 5581 5587 5589 5594 5601 5607 5612 5617 5623 5628 5634 5640 5646 5652 5657 5662 5668 5673 5679 5685 5691 5696 5702 5707 5713 5717 5722 5726 5730 5734 5738 5741 5745
5569 5568 5566 5565 5565 5565 5565 5567 5568 5568 5570 5572 5575 5578 5584 5590 5595 5600 5605 5611 5616 5622 5628 5634 5640 5645 5651 5656 5662 5668 5674 5680 5686 5692 5697 5702 5708 5712 5716 5720 5724 5728 5731 5735
5560 5560 5559 5557 5556 5557 5557 5557 5559 5560 5561 5563 5566 5569 5574 5578 5583 5589 5594 5600 5605 5611 5617 5622 5628 5634 5639 5645 5650 5656 5662 5669 5675 5681 5687 5692 5697 5702 5706 5710 5714 5717 5721 5724
5552 5552 5551 5550 5549 5548 5549 5550 5551 5552 5553 5554 5557 5560 5564 5568 5572 5578 5583 5588 5594 5599 5605 5611 5616 5622 5627 5633 5638 5644 5651 5658 5664 5670 5675 5681 5686 5690 5695 5699 5703 5707 5710 5713
5545 5544 5543 5542 5540 5540 5541 5542 5542 5543 5545 5547 5549 5554 5555 5559 5563 5567 5572 5577 5582 5588 5593 5599 5605 5610 5615 5621 5627 5633 5639 5646 5652 5658 5663 5669 5674 5679 5683 5688 5692 5696 5699 5703
5537 5536 5535 5534 5533 5532 5533 5533 5534 5536 5537 5539 5542 5548 5547 5550 5554 5557 5562 5566 5571 5576 5582 5588 5594 5599 5604 5609 5615 5621 5628 5634 5640 5646 5652 5657 5662 5667 5672 5676 5681 5684 5688 5692
5530 5528 5527 5527 5528 5526 5525 5525 5526 5528 5530 5531 5534 5540 5539 5542 5545 5548 5552 5556 5560 5565 5571 5577 5583 5588 5594 5599 5605 5610 5616 5622 5628 5634 5640 5645 5650 5655 5660 5665 5669 5673 5677 5681
5523 5521 5521 5520 5519 5518 5519 5519 5520 5521 5522 5523 5526 5529 5532 5533 5536 5539 5542 5545 5550 5555 5560 5566 5572 5578 5583 5589 5594 5600 5605 5611 5616 5622 5628 5633 5638 5644 5648 5653 5657 5661 5665 5669
5516 5515 5513 5513 5512 5512 5512 5512 5513 5513 5514 5516 5519 5521 5523 5524 5527 5530 5533 5536 5540 5545 5550 5555 5561 5567 5573 5578 5583 5589 5594 5599 5604 5610 5615 5621 5626 5631 5636 5641 5645 5649 5653 5657
5510 5509 5508 5508 5507 5506 5505 5505 5506 5506 5507 5509 5511 5513 5515 5516 5519 5521 5524 5527 5531 5535 5540 5545 5550 5556 5562 5567 5573 5578 5583 5588 5593 5598 5603 5608 5614 5619 5624 5628 5633 5637 5641 5645
5505 5504 5503 5503 5501 5500 5500 5500 5499 5500 5500 5502 5504 5507 5507 5509 5511 5513 5515 5518 5521 5525 5530 5535 5540 5545 5550 5556 5562 5567 5572 5577 5582 5587 5592 5597 5602 5607 5611 5616 5620 5624 5629 5633
5501 5499 5498 5498 5497 5495 5497 5494 5494 5494 5495 5496 5497 5499 5500 5501 5503 5505 5507 5509 5512 5516 5520 5525 5530 5535 5540 5545 5551 5556 5561 5566 5571 5576 5581 5585 5590 5594 5599 5603 5608 5612 5616 5620
5496 5495 5494 5493 5491 5491 5491 5489 5488 5488 5489 5490 5491 5492 5494 5495 5496 5498 5499 5501 5503 5506 5510 5515 5520 5525 5529 5534 5540 5545 5550 5555 5560 5565 5569 5574 5578 5582 5586 5591 5595 5600 5604 5608
5491 5490 5489 5487 5486 5486 5487 5485 5484 5485 5485 5485 5486 5487 5488 5488 5490 5492 5492 5493 5495 5498 5501 5506 5511 5515 5520 5524 5529 5534 5539 5544 5549 5554 5558 5562 5566 5571 5575 5579 5584 5588 5592 5596
5486 5485 5483 5482 5481 5481 5481 5480 5480 5481 5481 5480 5480 5481 5482 5482 5483 5485 5485 5486 5487 5490 5493 5497 5502 5506 5511 5515 5520 5524 5528 5533 5538 5542 5547 5551 5555 5559 5564 5568 5572 5576 5581 5585
5481 5480 5479 5477 5477 5478 5476 5475 5476 5476 5475 5475 5475 5475 5476 5477 5477 5478 5478 5479 5480 5483 5486 5489 5493 5498 5502 5506 5511 5515 5519 5523 5528 5532 5536 5540 5544 5548 5553 5557 5561 5565 5569 5573
5476 5475 5474 5474 5474 5472 5471 5470 5470 5470 5470 5470 5470 5470 5470 5470 5471 5472 5472 5473 5474 5476 5479 5482 5486 5490 5493 5497 5501 5505 5509 5513 5518 5522 5525 5529 5533 5537 5541 5546 5550 5554 5557 5561
5472 5470 5469 5468 5468 5467 5466 5466 5465 5465 5464 5464 5464 5464 5464 5464 5465 5465 5466 5467 5468 5470 5472 5475 5478 5481 5485 5488 5492 5496 5500 5504 5508 5512 5515 5519 5523 5527 5531 5535 5539 5542 5546 5549
5467 5466 5465 5464 5463 5463 5462 5461 5461 5460 5459 5459 5458 5458 5458 5459 5459 5459 5460 5461 5462 5463 5465 5467 5470 5474 5477 5480 5484 5487 5491 5495 5499 5502 5506 5509 5513 5517 5521 5525 5528 5531 5535 5538
5463 5461 5460 5459 5459 5458 5458 5456 5456 5455 5454 5454 5453 5453 5453 5453 5453 5453 5454 5454 5455 5457 5458 5460 5463 5466 5469 5472 5476 5479 5483 5486 5490 5493 5497 5500 5503 5507 5511 5514 5518 5520 5524 5527